• In Deutschland
  • Länderverzeichnis
  • Für 7 Tage
  • Wassertemperatur
  • Satellitenkarten
  • Wetterkarte
  • Widgets
  • user-avatar
    Anmelden

    Stündliche Wetter Alto Araguaia

    Heute, 18 August, Samstag

    Zeit Temperatur Niederschläge Wind Luftdruck Luftfeuchtigkeit
    00:00 +24°C° 0 mm 3 m/S 704 mmHg 42%
    01:00 +22°C° 0 mm 3 m/S 704 mmHg 44%
    02:00 +22°C° 0 mm 3 m/S 704 mmHg 46%
    03:00 +21°C° 0 mm 3 m/S 704 mmHg 48%
    04:00 +21°C° 0 mm 3 m/S 704 mmHg 50%
    05:00 +21°C° 0 mm 3 m/S 704 mmHg 52%
    06:00 +22°C° 0 mm 4 m/S 705 mmHg 50%
    07:00 +25°C° 0 mm 4 m/S 705 mmHg 48%
    08:00 +27°C° 0 mm 4 m/S 706 mmHg 46%
    09:00 +29°C° 0 mm 4 m/S 706 mmHg 40%
    10:00 +31°C° 0 mm 3 m/S 706 mmHg 33%
    11:00 +34°C° 0 mm 3 m/S 706 mmHg 26%
    12:00 +34°C° 0 mm 2 m/S 706 mmHg 26%
    13:00 +34°C° 0 mm 2 m/S 705 mmHg 26%
    14:00 +34°C° 0 mm 2 m/S 704 mmHg 26%
    15:00 +32°C° 0 mm 2 m/S 704 mmHg 28%
    16:00 +31°C° 0 mm 2 m/S 703 mmHg 31%
    17:00 +30°C° 0 mm 2 m/S 703 mmHg 33%
    18:00 +28°C° 0 mm 2 m/S 703 mmHg 36%
    19:00 +27°C° 0 mm 2 m/S 704 mmHg 39%
    20:00 +26°C° 0 mm 2 m/S 704 mmHg 42%
    21:00 +26°C° 0 mm 2 m/S 704 mmHg 44%
    22:00 +25°C° 0 mm 2 m/S 704 mmHg 46%
    23:00 +24°C° 0 mm 2 m/S 704 mmHg 48%

    Morgen, 19 August, Sonntag

    Zeit Temperatur Niederschläge Wind Luftdruck Luftfeuchtigkeit
    00:00 +24°C° 0 mm 2 m/S 704 mmHg 49%
    01:00 +23°C° 0 mm 2 m/S 704 mmHg 51%
    02:00 +23°C° 0 mm 2 m/S 703 mmHg 52%
    03:00 +21°C° 0 mm 2 m/S 703 mmHg 53%
    04:00 +21°C° 0 mm 2 m/S 703 mmHg 53%
    05:00 +21°C° 0 mm 2 m/S 704 mmHg 54%
    06:00 +24°C° 0 mm 3 m/S 705 mmHg 48%
    07:00 +26°C° 0 mm 3 m/S 705 mmHg 42%
    08:00 +28°C° 0 mm 4 m/S 706 mmHg 36%
    09:00 +30°C° 0 mm 3 m/S 707 mmHg 31%
    10:00 +33°C° 0 mm 3 m/S 707 mmHg 27%
    11:00 +35°C° 0 mm 2 m/S 707 mmHg 23%
    12:00 +34°C° 0 mm 2 m/S 706 mmHg 23%
    13:00 +34°C° 0 mm 2 m/S 705 mmHg 24%
    14:00 +32°C° 0 mm 1 m/S 705 mmHg 25%
    15:00 +31°C° 0 mm 1 m/S 705 mmHg 26%
    16:00 +31°C° 0 mm 1 m/S 705 mmHg 27%
    17:00 +30°C° 0 mm 1 m/S 704 mmHg 28%
    18:00 +29°C° 0 mm 1 m/S 705 mmHg 30%
    19:00 +28°C° 0 mm 1 m/S 705 mmHg 32%
    20:00 +27°C° 0 mm 2 m/S 706 mmHg 34%
    21:00 +26°C° 0 mm 2 m/S 706 mmHg 35%
    22:00 +26°C° 0 mm 2 m/S 706 mmHg 37%
    23:00 +26°C° 0 mm 2 m/S 706 mmHg 38%

    übermorgen, 20 August, Montag

    Zeit Temperatur Niederschläge Wind Luftdruck Luftfeuchtigkeit
    00:00 +25°C° 0 mm 3 m/S 706 mmHg 39%
    01:00 +25°C° 0 mm 3 m/S 705 mmHg 40%
    02:00 +25°C° 0 mm 3 m/S 705 mmHg 41%
    03:00 +25°C° 0 mm 3 m/S 705 mmHg 41%
    04:00 +24°C° 0 mm 3 m/S 705 mmHg 41%
    05:00 +24°C° 0 mm 3 m/S 705 mmHg 41%
    06:00 +26°C° 0 mm 4 m/S 706 mmHg 37%
    07:00 +27°C° 0 mm 4 m/S 707 mmHg 34%
    08:00 +29°C° 0 mm 5 m/S 707 mmHg 31%
    09:00 +30°C° 0 mm 4 m/S 707 mmHg 27%
    10:00 +33°C° 0 mm 4 m/S 707 mmHg 24%
    11:00 +35°C° 0 mm 3 m/S 708 mmHg 21%
    12:00 +35°C° 0 mm 3 m/S 707 mmHg 21%
    13:00 +35°C° 0 mm 2 m/S 706 mmHg 21%
    14:00 +33°C° 0 mm 1 m/S 705 mmHg 21%
    15:00 +32°C° 0 mm 1 m/S 705 mmHg 23%
    16:00 +31°C° 0 mm 1 m/S 705 mmHg 24%
    17:00 +30°C° 0 mm 1 m/S 704 mmHg 26%
    18:00 +29°C° 0 mm 1 m/S 705 mmHg 28%
    19:00 +28°C° 0 mm 1 m/S 705 mmHg 30%
    20:00 +27°C° 0 mm 1 m/S 706 mmHg 32%
    21:00 +26°C° 0 mm 1 m/S 706 mmHg 34%
    22:00 +26°C° 0 mm 2 m/S 706 mmHg 36%
    23:00 +25°C° 0 mm 2 m/S 706 mmHg 38%

    21 August, Dienstag

    Zeit Temperatur Niederschläge Wind Luftdruck Luftfeuchtigkeit
    00:00 +24°C° 0 mm 2 m/S 705 mmHg 44%
    01:00 +23°C° 0 mm 2 m/S 705 mmHg 50%
    02:00 +21°C° 0 mm 2 m/S 704 mmHg 56%
    03:00 +21°C° 0 mm 2 m/S 705 mmHg 57%
    04:00 +20°C° 0 mm 2 m/S 705 mmHg 58%
    05:00 +20°C° 0 mm 2 m/S 705 mmHg 60%
    06:00 +23°C° 0 mm 2 m/S 705 mmHg 52%
    07:00 +25°C° 0 mm 2 m/S 706 mmHg 44%
    08:00 +27°C° 0 mm 2 m/S 707 mmHg 36%
    09:00 +29°C° 0 mm 2 m/S 707 mmHg 31%
    10:00 +31°C° 0 mm 3 m/S 707 mmHg 26%
    11:00 +35°C° 0 mm 3 m/S 707 mmHg 21%
    12:00 +35°C° 0 mm 3 m/S 706 mmHg 20%
    13:00 +36°C° 0 mm 2 m/S 705 mmHg 18%
    14:00 +36°C° 0 mm 1 m/S 705 mmHg 17%
    15:00 +35°C° 0 mm 1 m/S 705 mmHg 19%
    16:00 +33°C° 0 mm 1 m/S 704 mmHg 20%
    17:00 +32°C° 0 mm 1 m/S 704 mmHg 22%
    18:00 +31°C° 0 mm 1 m/S 704 mmHg 24%
    19:00 +30°C° 0 mm 2 m/S 705 mmHg 26%
    20:00 +28°C° 0 mm 2 m/S 705 mmHg 28%
    21:00 +28°C° 0 mm 2 m/S 705 mmHg 30%
    22:00 +27°C° 0 mm 2 m/S 705 mmHg 32%
    23:00 +27°C° 0 mm 2 m/S 705 mmHg 34%

    22 August, Mittwoch

    Zeit Temperatur Niederschläge Wind Luftdruck Luftfeuchtigkeit
    00:00 +26°C° 0 mm 2 m/S 705 mmHg 38%
    01:00 +25°C° 0 mm 2 m/S 704 mmHg 41%
    02:00 +24°C° 0 mm 2 m/S 704 mmHg 45%
    03:00 +23°C° 0 mm 2 m/S 704 mmHg 44%
    04:00 +23°C° 0 mm 2 m/S 704 mmHg 44%
    05:00 +21°C° 0 mm 2 m/S 704 mmHg 43%
    06:00 +25°C° 0 mm 2 m/S 705 mmHg 38%
    07:00 +27°C° 0 mm 3 m/S 706 mmHg 32%
    08:00 +29°C° 0 mm 3 m/S 706 mmHg 27%
    09:00 +32°C° 0 mm 4 m/S 706 mmHg 25%
    10:00 +34°C° 0 mm 4 m/S 706 mmHg 22%
    11:00 +36°C° 0 mm 4 m/S 706 mmHg 20%
    12:00 +36°C° 0 mm 3 m/S 705 mmHg 19%
    13:00 +37°C° 0 mm 2 m/S 705 mmHg 18%
    14:00 +37°C° 0 mm 2 m/S 704 mmHg 18%
    15:00 +36°C° 0 mm 2 m/S 704 mmHg 19%
    16:00 +34°C° 0 mm 2 m/S 703 mmHg 21%
    17:00 +32°C° 0 mm 1 m/S 703 mmHg 23%
    18:00 +31°C° 0 mm 1 m/S 703 mmHg 25%
    19:00 +30°C° 0 mm 1 m/S 703 mmHg 27%
    20:00 +29°C° 0 mm 2 m/S 704 mmHg 28%
    21:00 +29°C° 0 mm 2 m/S 704 mmHg 30%
    22:00 +28°C° 0 mm 2 m/S 703 mmHg 31%
    23:00 +28°C° 0 mm 1 m/S 703 mmHg 32%

    23 August, Donnerstag

    Zeit Temperatur Niederschläge Wind Luftdruck Luftfeuchtigkeit
    00:00 +27°C° 0 mm 2 m/S 703 mmHg 34%
    01:00 +26°C° 0 mm 2 m/S 703 mmHg 36%
    02:00 +26°C° 0 mm 2 m/S 702 mmHg 37%
    03:00 +25°C° 0 mm 2 m/S 702 mmHg 39%
    04:00 +25°C° 0 mm 2 m/S 702 mmHg 41%
    05:00 +24°C° 0 mm 2 m/S 702 mmHg 43%
    06:00 +26°C° 0 mm 3 m/S 703 mmHg 40%
    07:00 +27°C° 0 mm 3 m/S 704 mmHg 36%
    08:00 +29°C° 0 mm 4 m/S 704 mmHg 33%
    09:00 +32°C° 0 mm 4 m/S 704 mmHg 30%
    10:00 +34°C° 0 mm 5 m/S 704 mmHg 26%
    11:00 +36°C° 0 mm 5 m/S 704 mmHg 22%
    12:00 +36°C° 0 mm 5 m/S 704 mmHg 22%
    13:00 +37°C° 0 mm 4 m/S 703 mmHg 21%
    14:00 +37°C° 0 mm 4 m/S 702 mmHg 20%
    15:00 +36°C° 0 mm 4 m/S 702 mmHg 21%
    16:00 +35°C° 0 mm 3 m/S 702 mmHg 23%
    17:00 +34°C° 0 mm 3 m/S 702 mmHg 24%
    18:00 +33°C° 0 mm 3 m/S 702 mmHg 26%
    19:00 +30°C° 0 mm 3 m/S 702 mmHg 29%
    20:00 +29°C° 0 mm 3 m/S 702 mmHg 31%
    21:00 +28°C° 0 mm 3 m/S 702 mmHg 32%
    22:00 +27°C° 0 mm 3 m/S 702 mmHg 33%
    23:00 +27°C° 0 mm 3 m/S 702 mmHg 35%
    Mehr zeigen